Weather History for Katowice, Poland

Change the Weather History Date:

Sunday, May 19, 2013

  Actual Average Record
Temperature  
Mean Temperature 63 °F -  
Max Temperature 78 °F 67 °F 78 °F (2011)
Min Temperature 48 °F 47 °F 32 °F (1999)
Degree Days  
Heating Degree Days 2    
Growing Degree Days 13 (Base 50)    
Moisture  
Dew Point 49 °F    
Average Humidity 60    
Maximum Humidity 100    
Minimum Humidity 30    
Precipitation  
Precipitation 0.00 in - - ()
Sea Level Pressure  
Sea Level Pressure 29.84 in    
Wind  
Wind Speed 4 mph ()    
Max Wind Speed 10 mph    
Max Gust Speed -    
Visibility 5.3 miles    
Events Fog    
Averages and records for this station are not official NWS values.
T = Trace of Precipitation, MM = Missing Value Source: Averaged Metar Reports

Daily Weather History Graph

Daily Weather History Graph

Search for Another Location

Airport:

Trip Planner

Search our weather history database for the weather conditions in past years. The results will help you decide how hot, cold, wet, or windy it might be!

Date:

Astronomy

May. 19, 2013 Rise Set
Actual Time 4:50 AM CEST 8:30 PM CEST
Civil Twilight 4:09 AM CEST 9:11 PM CEST
Nautical Twilight 3:14 AM CEST 10:07 PM CEST
Astronomical Twilight 1:52 AM CEST 11:32 PM CEST
Moon 1:38 PM CEST 1:45 AM CEST
Length of Visible Light 17h 01m
Length of Day
15h 40m
Waxing Gibbous, 62% of the Moon is Illuminated
May 19
Waxing Gibbous
May 25
Full
May 31
Last Quarter
Jun 8
New
Jun 16
First Quarter

Hourly Weather History & Observations

Time (CEST) Temp. Dew Point Humidity Pressure Visibility Wind Dir Wind Speed Gust Speed Precip Events Conditions
12:00 AM 50.0 °F 50.0 °F 100% 29.92 in 0.6 mi Variable 1.2 mph - N/A Fog Patches of Fog
12:30 AM 51.8 °F 50.0 °F 94% 29.92 in 6.2 mi East 3.5 mph - N/A Fog Shallow Fog
1:00 AM 50.0 °F 50.0 °F 100% 29.92 in - ESE 4.6 mph - N/A   Clear
1:30 AM 50.0 °F 48.2 °F 94% 29.92 in - ESE 4.6 mph - N/A   Clear
2:00 AM 50.0 °F 48.2 °F 94% 29.92 in - East 4.6 mph - N/A   Clear
2:30 AM 48.2 °F 46.4 °F 93% 29.92 in - ESE 4.6 mph - N/A   Clear
3:00 AM 48.2 °F 46.4 °F 93% 29.92 in - ESE 5.8 mph - N/A   Clear
3:30 AM 48.2 °F 46.4 °F 93% 29.92 in - ESE 4.6 mph - N/A   Clear
4:00 AM 48.2 °F 46.4 °F 93% 29.92 in 6.2 mi ESE 4.6 mph - N/A Fog Shallow Fog
4:30 AM 53.6 °F 50.0 °F 88% 29.89 in 6.2 mi ESE 4.6 mph - N/A Fog Shallow Fog
5:00 AM 53.6 °F 50.0 °F 88% 29.89 in 6.2 mi ESE 5.8 mph - N/A Fog Shallow Fog
5:30 AM 53.6 °F 50.0 °F 88% 29.89 in 6.2 mi ESE 5.8 mph - N/A Fog Shallow Fog
6:00 AM 53.6 °F 50.0 °F 88% 29.89 in - ESE 5.8 mph - N/A   Clear
6:30 AM 55.4 °F 50.0 °F 82% 29.89 in - ESE 5.8 mph - N/A   Clear
7:00 AM 57.2 °F 51.8 °F 82% 29.89 in - ESE 4.6 mph - N/A   Clear
7:30 AM 59.0 °F 51.8 °F 77% 29.89 in - East 4.6 mph - N/A   Clear
8:00 AM 62.6 °F 51.8 °F 68% 29.89 in - ESE 4.6 mph - N/A   Clear
8:30 AM 64.4 °F 51.8 °F 64% 29.89 in - SE 3.5 mph - N/A   Clear
9:00 AM 66.2 °F 51.8 °F 60% 29.89 in - ESE 6.9 mph - N/A   Clear
9:30 AM 68.0 °F 46.4 °F 46% 29.86 in - SE 6.9 mph - N/A   Clear
10:00 AM 68.0 °F 44.6 °F 43% 29.86 in - SSE 6.9 mph - N/A   Clear
10:30 AM 69.8 °F 44.6 °F 40% 29.86 in - SSE 6.9 mph - N/A   Clear
11:00 AM 69.8 °F 44.6 °F 40% 29.86 in - SE 6.9 mph - N/A   Clear
11:30 AM 69.8 °F 46.4 °F 43% 29.86 in - Variable 5.8 mph - N/A   Clear
12:00 PM 71.6 °F 46.4 °F 41% 29.83 in - Variable 6.9 mph - N/A   Clear
12:30 PM 71.6 °F 46.4 °F 41% 29.83 in - Variable 6.9 mph - N/A   Clear
1:00 PM 73.4 °F 44.6 °F 36% 29.83 in - SE 10.4 mph - N/A   Clear
1:30 PM 73.4 °F 42.8 °F 33% 29.83 in - South 5.8 mph - N/A   Clear
2:00 PM 75.2 °F 44.6 °F 34% 29.83 in - South 8.1 mph - N/A   Clear
2:30 PM 75.2 °F 44.6 °F 34% 29.80 in - SE 9.2 mph - N/A   Clear
3:00 PM 77.0 °F 44.6 °F 32% 29.80 in - SSE 10.4 mph - N/A   Clear
3:30 PM 77.0 °F 44.6 °F 32% 29.80 in - SSE 4.6 mph - N/A   Clear
4:00 PM 78.8 °F 46.4 °F 32% 29.80 in - SSE 6.9 mph - N/A   Clear
4:30 PM 78.8 °F 44.6 °F 30% 29.77 in - SE 8.1 mph - N/A   Clear
5:00 PM 78.8 °F 46.4 °F 32% 29.77 in - SSE 8.1 mph - N/A   Clear
5:30 PM 78.8 °F 46.4 °F 32% 29.77 in - SSE 4.6 mph - N/A   Clear
6:00 PM 78.8 °F 48.2 °F 34% 29.77 in - Variable 4.6 mph - N/A   Clear
6:30 PM 78.8 °F 48.2 °F 34% 29.77 in - SSE 4.6 mph - N/A   Clear
7:00 PM 77.0 °F 50.0 °F 39% 29.77 in - South 3.5 mph - N/A   Clear
7:30 PM 77.0 °F 50.0 °F 39% 29.77 in - SE 3.5 mph - N/A   Clear
8:00 PM 75.2 °F 51.8 °F 44% 29.77 in - Variable 2.3 mph - N/A   Clear
8:30 PM 73.4 °F 51.8 °F 47% 29.77 in - ESE 4.6 mph - N/A   Clear
9:00 PM 71.6 °F 53.6 °F 53% 29.77 in - SE 3.5 mph - N/A   Clear
9:30 PM 68.0 °F 53.6 °F 60% 29.77 in - Variable 1.2 mph - N/A   Clear
10:00 PM 68.0 °F 53.6 °F 60% 29.77 in - SSW 3.5 mph - N/A   Clear
10:30 PM 64.4 °F 53.6 °F 68% 29.77 in - SSW 2.3 mph - N/A   Clear
11:00 PM 60.8 °F 53.6 °F 77% 29.77 in - Variable 1.2 mph - N/A   Clear
11:30 PM 60.8 °F 53.6 °F 77% 29.77 in - SE 3.5 mph - N/A   Clear